Location: Gallinara
(44.0333°N, 8.2333°E)
Time: 16:57:26
(UTC+00:00)

Meteor 1-19 Rocket - Pass Details

Date: 25 September 2020
Orbit: 810 x 925 km, 81.2° (Epoch: 30 October)

Event Time Altitude Azimuth Distance (km) Brightness Sun altitude
Rises 04:18:34 0° 188° (S) 3,338 7.1 -11.5°
Reaches altitude 10° 04:20:55 10° 188° (S) 2,420 6.4 -11.1°
Maximum altitude 04:26:24 89° 95° (E) 848 4.2 -10.1°
Drops below altitude 10° 04:32:06 10° 11° (N) 2,508 6.9 -9.1°
Sets 04:34:34 0° 11° (N) 3,467 7.6 -8.6°
